Details for Ryanair at GMMX




Go Back


Latest METAR
Local Time

GMMX 221100Z 03003KT 330V110 9999 FEW026 32/16 Q1018 NOSIG
22/09/2018, 11:13:15

Description
Results
Ryanair Logo
Number of Pilots based at GMMX
0 Pilots Based here
Number of Ryanair Flights Departed from GMMX
2 Flights Departed
Number of Ryanair Flights Arrived at GMMX
3 Flights Arrived
Number of Ryanair Schedules Departing from GMMX
46 Schedules
Number of Ryanair Schedules Arriving at GMMX
45 Schedules
Number of Ryanair Schedules Departing from GMMX availible today
17 Schedules Today
Number of Ryanair Schedules Arriving at GMMX availible today
17 Schedules Today
Average Landing Rate at GMMX
-205 fpm
Ryanair Average Landing Rate at GMMX
-177 fpm
Total Fuel Purchased at GMMX by Ryanair
8,806.04 kgs / 19,413.80 lbs

Pilots Based at GMMX


Pilot ID
Pilot Name
Pilot Rank
No. of Flights
No. of Flying Hours
There are no pilots assigned to this hub!   Will you be the first?
Content